| time (UTC) | temp F | wind direction | speed knots | gust knots | rain 1hr in | rain 24hr in | rain mn in | humidity % | barometer mb |
| 20260503215248 | 65 | 157 | 5.2 | 7.0 | 0.00 | 0.00 | 0.00 | 63 | 1015.9 |
| 20260503214746 | 65 | 208 | 2.6 | 7.0 | 0.00 | 0.00 | 0.00 | 63 | 1015.7 |
| 20260503214242 | 66 | 226 | 5.2 | 6.1 | 0.00 | 0.00 | 0.00 | 62 | 1015.8 |
| 20260503213741 | 66 | 191 | 4.3 | 6.1 | 0.00 | 0.00 | 0.00 | 63 | 1015.7 |
| 20260503213238 | 66 | 232 | 1.7 | 6.1 | 0.00 | 0.00 | 0.00 | 63 | 1015.8 |
| 20260503212734 | 66 | 243 | 4.3 | 6.1 | 0.00 | 0.00 | 0.00 | 62 | 1015.8 |
| 20260503212232 | 66 | 242 | 5.2 | 8.7 | 0.00 | 0.00 | 0.00 | 61 | 1015.7 |
| 20260503211730 | 66 | 193 | 6.1 | 7.8 | 0.00 | 0.00 | 0.00 | 62 | 1016.1 |
| 20260503211225 | 66 | 175 | 3.5 | 6.1 | 0.00 | 0.00 | 0.00 | 61 | 1015.7 |
| 20260503210721 | 66 | 171 | 8.7 | 9.6 | 0.00 | 0.00 | 0.00 | 61 | 1015.9 |
| 20260503210219 | 66 | 217 | 7.8 | 8.7 | 0.00 | 0.00 | 0.00 | 61 | 1016.2 |
| 20260503205714 | 66 | 200 | 3.5 | 7.8 | 0.00 | 0.00 | 0.00 | 62 | 1016.2 |
| 20260503205210 | 66 | 128 | 5.2 | 11.3 | 0.00 | 0.00 | 0.00 | 62 | 1016.1 |
| 20260503204707 | 66 | 201 | 5.2 | 12.2 | 0.00 | 0.00 | 0.00 | 60 | 1016.2 |
| 20260503204205 | 66 | 160 | 2.6 | 7.8 | 0.00 | 0.00 | 0.00 | 61 | 1016.3 |
| 20260503203701 | 66 | 187 | 4.3 | 6.1 | 0.00 | 0.00 | 0.00 | 61 | 1016.0 |
| 20260503203159 | 66 | 199 | 7.8 | 13.0 | 0.00 | 0.00 | 0.00 | 60 | 1016.0 |
| 20260503202650 | 66 | 199 | 4.3 | 8.7 | 0.00 | 0.00 | 0.00 | 61 | 1016.3 |
| 20260503202148 | 66 | 243 | 1.7 | 5.2 | 0.00 | 0.00 | 0.00 | 61 | 1016.3 |
| 20260503201646 | 66 | 214 | 0.9 | 5.2 | 0.00 | 0.00 | 0.00 | 62 | 1016.1 |
| 20260503201143 | 66 | 288 | 1.7 | 7.0 | 0.00 | 0.00 | 0.00 | 61 | 1016.3 |
| 20260503200639 | 66 | 195 | 7.8 | 13.0 | 0.00 | 0.00 | 0.00 | 61 | 1016.5 |
| 20260503200136 | 66 | 244 | 3.5 | 6.1 | 0.00 | 0.00 | 0.00 | 61 | 1016.5 |
| 20260503195633 | 66 | 223 | 6.1 | 9.6 | 0.00 | 0.00 | 0.00 | 61 | 1016.3 |
| 20260503195130 | 66 | 205 | 1.7 | 8.7 | 0.00 | 0.00 | 0.00 | 61 | 1016.6 |
| 20260503194627 | 67 | 208 | 5.2 | 8.7 | 0.00 | 0.00 | 0.00 | 60 | 1016.6 |
| 20260503194122 | 66 | 222 | 0.9 | 6.1 | 0.00 | 0.00 | 0.00 | 61 | 1016.7 |
| 20260503193620 | 66 | 186 | 5.2 | 7.8 | 0.00 | 0.00 | 0.00 | 61 | 1016.8 |
| 20260503193114 | 66 | 173 | 2.6 | 11.3 | 0.00 | 0.00 | 0.00 | 61 | 1017.0 |
| 20260503192604 | 66 | 219 | 3.5 | 7.0 | 0.00 | 0.00 | 0.00 | 61 | 1016.9 |
| 20260503192100 | 66 | 116 | 6.1 | 9.6 | 0.00 | 0.00 | 0.00 | 60 | 1017.0 |
| 20260503191557 | 66 | 284 | 2.6 | 8.7 | 0.00 | 0.00 | 0.00 | 61 | 1017.0 |
| 20260503191054 | 66 | 148 | 4.3 | 7.8 | 0.00 | 0.00 | 0.00 | 61 | 1017.1 |
| 20260503190551 | 66 | 196 | 1.7 | 6.1 | 0.00 | 0.00 | 0.00 | 62 | 1017.1 |
| 20260503190048 | 66 | 127 | 4.3 | 6.1 | 0.00 | 0.00 | 0.00 | 60 | 1017.3 |
| 20260503185545 | 66 | 83 | 2.6 | 4.3 | 0.00 | 0.00 | 0.00 | 59 | 1017.4 |
| 20260503185044 | 66 | 227 | 0.0 | 2.6 | 0.00 | 0.00 | 0.00 | 58 | 1017.4 |
| 20260503184540 | 66 | 213 | 2.6 | 4.3 | 0.00 | 0.00 | 0.00 | 60 | 1017.4 |
| 20260503184037 | 66 | 180 | 3.5 | 7.0 | 0.00 | 0.00 | 0.00 | 60 | 1017.5 |
| 20260503183534 | 66 | 172 | 2.6 | 7.8 | 0.00 | 0.00 | 0.00 | 60 | 1017.7 |
| 20260503183031 | 67 | 106 | 4.3 | 7.0 | 0.00 | 0.00 | 0.00 | 59 | 1017.6 |
| 20260503182530 | 67 | 112 | 2.6 | 11.3 | 0.00 | 0.00 | 0.00 | 60 | 1017.7 |
| 20260503182027 | 67 | 193 | 7.8 | 8.7 | 0.00 | 0.00 | 0.00 | 60 | 1017.7 |
| 20260503181524 | 67 | 190 | 2.6 | 6.1 | 0.00 | 0.00 | 0.00 | 61 | 1017.7 |
| 20260503181020 | 67 | 171 | 5.2 | 7.8 | 0.00 | 0.00 | 0.00 | 61 | 1017.7 |
| 20260503180518 | 66 | 155 | 4.3 | 6.1 | 0.00 | 0.00 | 0.00 | 61 | 1017.8 |
| 20260503180015 | 66 | 128 | 0.9 | 1.7 | 0.00 | 0.00 | 0.00 | 61 | 1017.5 |
| 20260503175512 | 67 | 120 | 2.6 | 5.2 | 0.00 | 0.00 | 0.00 | 60 | 1017.6 |
| 20260503175009 | 67 | 184 | 6.1 | 7.0 | 0.00 | 0.00 | 0.00 | 60 | 1017.9 |
| 20260503174507 | 67 | 104 | 5.2 | 7.8 | 0.00 | 0.00 | 0.00 | 59 | 1017.7 |
| 20260503174002 | 68 | 151 | 3.5 | 5.2 | 0.00 | 0.00 | 0.00 | 57 | 1017.7 |
| 20260503173457 | 68 | 138 | 0.9 | 1.7 | 0.00 | 0.00 | 0.00 | 58 | 1017.7 |
| 20260503172954 | 68 | 209 | 0.9 | 1.7 | 0.00 | 0.00 | 0.00 | 58 | 1018.0 |
| 20260503172452 | 68 | 74 | 1.7 | 2.6 | 0.00 | 0.00 | 0.00 | 56 | 1017.9 |
| 20260503171948 | 68 | 207 | 0.9 | 2.6 | 0.00 | 0.00 | 0.00 | 54 | 1017.7 |
| 20260503171445 | 68 | 118 | 1.7 | 2.6 | 0.00 | 0.00 | 0.00 | 55 | 1017.9 |
| 20260503170943 | 68 | 287 | 0.9 | 2.6 | 0.00 | 0.00 | 0.00 | 53 | 1018.1 |
| 20260503170438 | 68 | 231 | 1.7 | 4.3 | 0.00 | 0.00 | 0.00 | 54 | 1018.1 |
| 20260503150831 | 66 | 170 | 0.0 | 1.7 | 0.00 | 0.00 | 0.00 | 58 | 1018.6 |
| 20260503150327 | 65 | 119 | 0.0 | 4.3 | 0.00 | 0.00 | 0.00 | 63 | 1018.6 |
| 20260503140251 | 63 | 138 | 0.9 | 4.3 | 0.00 | 0.00 | 0.00 | 75 | 1018.3 |
| 20260503131221 | 58 | 83 | 0.9 | 2.6 | 0.00 | 0.00 | 0.00 | 99 | 1018.2 |
| 20260503130719 | 58 | 109 | 0.9 | 2.6 | 0.00 | 0.00 | 0.00 | 99 | 1018.1 |
| 20260503130216 | 57 | 106 | 0.9 | 2.6 | 0.00 | 0.00 | 0.00 | 99 | 1018.2 |
| 20260503120141 | 50 | 118 | 0.0 | 0.0 | 0.00 | 0.00 | 0.00 | 99 | 1017.5 |
| 20260503110609 | 48 | 220 | 0.0 | 0.0 | 0.00 | 0.00 | 0.00 | 99 | 1016.9 |
| 20260503110106 | 48 | 226 | 0.0 | 0.0 | 0.00 | 0.00 | 0.00 | 99 | 1016.9 |
| 20260503090456 | 49 | 248 | 0.0 | 0.0 | 0.00 | 0.00 | 0.00 | 99 | 1015.4 |
| 20260503081422 | 50 | 245 | 0.0 | 0.0 | 0.00 | 0.00 | 0.00 | 99 | 1015.1 |
| 20260503080919 | 50 | 247 | 0.0 | 0.9 | 0.00 | 0.00 | 0.00 | 99 | 1015.1 |
| 20260503080416 | 50 | 241 | 0.0 | 0.0 | 0.00 | 0.00 | 0.00 | 99 | 1015.4 |
| 20260503072852 | 50 | 203 | 0.0 | 0.9 | 0.00 | 0.00 | 0.00 | 99 | 1014.9 |
| 20260503072349 | 51 | 201 | 0.0 | 0.9 | 0.00 | 0.00 | 0.00 | 99 | 1014.7 |
| 20260503071846 | 51 | 203 | 0.0 | 0.0 | 0.00 | 0.00 | 0.00 | 99 | 1014.7 |
| 20260503071343 | 51 | 230 | 0.0 | 0.0 | 0.00 | 0.00 | 0.00 | 99 | 1014.7 |
| 20260503070839 | 51 | 242 | 0.0 | 0.0 | 0.00 | 0.00 | 0.00 | 99 | 1014.8 |
| 20260503070337 | 51 | 222 | 0.0 | 0.0 | 0.00 | 0.00 | 0.00 | 99 | 1014.5 |
| 20260503060308 | 52 | 254 | 0.0 | 0.9 | 0.00 | 0.00 | 0.00 | 99 | 1014.3 |
| 20260503054755 | 52 | 12 | 0.0 | 0.9 | 0.00 | 0.00 | 0.00 | 99 | 1014.3 |
| 20260503054252 | 52 | 13 | 0.0 | 0.0 | 0.00 | 0.00 | 0.00 | 99 | 1014.2 |
| 20260503053750 | 52 | 13 | 0.0 | 0.0 | 0.00 | 0.00 | 0.00 | 99 | 1014.4 |
| 20260503053248 | 52 | 14 | 0.0 | 0.9 | 0.00 | 0.00 | 0.00 | 99 | 1014.5 |
| 20260503052744 | 52 | 17 | 0.0 | 0.0 | 0.00 | 0.00 | 0.00 | 99 | 1014.3 |
| 20260503052241 | 52 | 22 | 0.0 | 0.9 | 0.00 | 0.00 | 0.00 | 99 | 1014.2 |
| 20260503051736 | 52 | 29 | 0.0 | 0.9 | 0.00 | 0.00 | 0.00 | 99 | 1014.4 |
| 20260503051234 | 53 | 30 | 0.0 | 0.9 | 0.00 | 0.00 | 0.00 | 99 | 1014.2 |
| 20260503050730 | 53 | 33 | 0.0 | 1.7 | 0.00 | 0.00 | 0.00 | 99 | 1014.2 |
| 20260503050227 | 53 | 254 | 0.0 | 0.0 | 0.00 | 0.00 | 0.00 | 99 | 1014.3 |
| 20260503045724 | 53 | 281 | 0.0 | 0.9 | 0.00 | 0.00 | 0.00 | 99 | 1014.2 |
| 20260503045222 | 53 | 266 | 0.9 | 1.7 | 0.00 | 0.00 | 0.00 | 99 | 1014.2 |
| 20260503044718 | 53 | 295 | 0.9 | 1.7 | 0.00 | 0.00 | 0.00 | 99 | 1014.0 |
| 20260503044215 | 53 | 342 | 0.9 | 1.7 | 0.00 | 0.00 | 0.00 | 99 | 1013.8 |
| 20260503043712 | 53 | 196 | 0.0 | 0.9 | 0.00 | 0.00 | 0.00 | 99 | 1013.7 |
| 20260503043210 | 53 | 73 | 0.0 | 0.9 | 0.00 | 0.00 | 0.00 | 99 | 1013.9 |
| 20260503042706 | 54 | 341 | 0.0 | 1.7 | 0.00 | 0.00 | 0.00 | 99 | 1013.8 |
| 20260503042203 | 54 | 285 | 0.9 | 2.6 | 0.00 | 0.00 | 0.00 | 99 | 1013.8 |
| 20260503041658 | 54 | 294 | 0.9 | 0.9 | 0.00 | 0.00 | 0.00 | 99 | 1013.8 |
| 20260503041156 | 54 | 235 | 0.0 | 0.9 | 0.00 | 0.00 | 0.00 | 99 | 1013.7 |
| 20260503040654 | 54 | 312 | 0.0 | 1.7 | 0.00 | 0.00 | 0.00 | 99 | 1013.7 |
| 20260503040151 | 54 | 290 | 0.9 | 0.9 | 0.00 | 0.00 | 0.00 | 99 | 1013.6 |
| 20260503035647 | 54 | 280 | 0.9 | 0.9 | 0.00 | 1.02 | 1.02 | 99 | 1013.7 |
| 20260503035145 | 54 | 272 | 0.0 | 1.7 | 0.00 | 1.02 | 1.02 | 99 | 1013.4 |
| 20260503034643 | 54 | 271 | 0.0 | 1.7 | 0.00 | 1.02 | 1.02 | 99 | 1013.4 |
| 20260503034139 | 55 | 287 | 0.0 | 0.9 | 0.00 | 1.02 | 1.02 | 99 | 1013.4 |
| 20260503033636 | 55 | 268 | 0.9 | 1.7 | 0.00 | 1.02 | 1.02 | 99 | 1013.2 |
| 20260503033134 | 55 | 244 | 0.0 | 0.9 | 0.00 | 1.02 | 1.02 | 99 | 1013.2 |
| 20260503032632 | 55 | 250 | 0.0 | 0.9 | 0.00 | 1.02 | 1.02 | 99 | 1013.0 |
| 20260503032131 | 55 | 230 | 0.0 | 0.0 | 0.00 | 1.02 | 1.02 | 99 | 1013.1 |
| 20260503031628 | 55 | 220 | 0.0 | 0.9 | 0.00 | 1.02 | 1.02 | 99 | 1012.9 |
| 20260503031126 | 55 | 258 | 0.9 | 2.6 | 0.00 | 1.02 | 1.02 | 99 | 1012.9 |
| 20260503030621 | 55 | 221 | 0.0 | 0.9 | 0.00 | 1.02 | 1.02 | 99 | 1012.8 |
| 20260503030118 | 55 | 224 | 0.0 | 0.0 | 0.00 | 1.02 | 1.02 | 99 | 1012.6 |
| 20260503025615 | 55 | 269 | 0.0 | 1.7 | 0.00 | 1.02 | 1.02 | 99 | 1012.8 |
| 20260503025113 | 55 | 229 | 0.0 | 1.7 | 0.00 | 1.02 | 1.02 | 99 | 1012.5 |
| 20260503024609 | 55 | 226 | 0.0 | 0.9 | 0.00 | 1.02 | 1.02 | 99 | 1012.7 |
| 20260503024106 | 55 | 257 | 0.0 | 1.7 | 0.00 | 1.02 | 1.02 | 99 | 1012.5 |
| 20260503023603 | 55 | 240 | 0.0 | 0.0 | 0.00 | 1.02 | 1.02 | 99 | 1012.4 |
| 20260503023100 | 55 | 250 | 0.0 | 0.9 | 0.00 | 1.02 | 1.02 | 99 | 1012.4 |
| 20260503022556 | 55 | 119 | 0.0 | 0.9 | 0.00 | 1.02 | 1.02 | 99 | 1012.4 |
| 20260503022051 | 55 | 40 | 0.9 | 0.9 | 0.00 | 1.02 | 1.02 | 99 | 1012.2 |
| 20260503021548 | 55 | 41 | 0.0 | 0.0 | 0.00 | 1.02 | 1.02 | 99 | 1012.1 |
| 20260503021044 | 55 | 41 | 0.0 | 0.0 | 0.00 | 1.02 | 1.02 | 99 | 1012.0 |
| 20260503020542 | 55 | 41 | 0.0 | 0.0 | 0.00 | 1.02 | 1.02 | 99 | 1011.8 |
| 20260503020039 | 55 | 41 | 0.0 | 0.9 | 0.00 | 1.02 | 1.02 | 99 | 1011.8 |
| 20260503015535 | 55 | 41 | 0.0 | 0.9 | 0.00 | 1.02 | 1.02 | 99 | 1011.8 |
| 20260503015033 | 55 | 108 | 0.0 | 0.9 | 0.00 | 1.02 | 1.02 | 99 | 1011.5 |
| 20260503014528 | 55 | 95 | 0.9 | 1.7 | 0.00 | 1.02 | 1.02 | 99 | 1011.6 |
| 20260503014027 | 55 | 262 | 0.0 | 0.9 | 0.00 | 1.02 | 1.02 | 99 | 1011.4 |
| 20260503013523 | 55 | 297 | 0.0 | 0.9 | 0.00 | 1.02 | 1.02 | 99 | 1011.5 |
| 20260503013021 | 55 | 230 | 0.0 | 0.0 | 0.00 | 1.02 | 1.02 | 99 | 1011.5 |
| 20260503012519 | 55 | 71 | 0.9 | 1.7 | 0.00 | 1.02 | 1.02 | 99 | 1011.7 |
| 20260503012015 | 55 | 240 | 0.0 | 0.9 | 0.00 | 1.02 | 1.02 | 99 | 1011.6 |
| 20260503011511 | 55 | 351 | 1.7 | 4.3 | 0.00 | 1.02 | 1.02 | 99 | 1011.3 |
| 20260503011009 | 55 | 304 | 0.0 | 0.9 | 0.00 | 1.02 | 1.02 | 99 | 1011.6 |
| 20260503010505 | 55 | 271 | 0.0 | 1.7 | 0.00 | 1.02 | 1.02 | 99 | 1011.6 |
| 20260503010003 | 55 | 209 | 0.0 | 0.9 | 0.00 | 1.02 | 1.02 | 99 | 1011.4 |
| 20260503005500 | 55 | 322 | 0.9 | 2.6 | 0.00 | 1.02 | 1.02 | 99 | 1011.4 |
| 20260503004957 | 55 | 242 | 0.9 | 0.9 | 0.00 | 1.02 | 1.02 | 99 | 1011.4 |
| 20260503004453 | 55 | 256 | 0.0 | 1.7 | 0.00 | 1.02 | 1.02 | 99 | 1011.2 |
| 20260503003951 | 55 | 304 | 0.9 | 1.7 | 0.00 | 1.02 | 1.02 | 99 | 1011.2 |
| 20260503003447 | 55 | 284 | 1.7 | 1.7 | 0.00 | 1.02 | 1.02 | 99 | 1010.9 |
| 20260503002944 | 55 | 21 | 1.7 | 4.3 | 0.00 | 1.02 | 1.02 | 99 | 1010.8 |
| 20260503002442 | 56 | 315 | 0.9 | 2.6 | 0.00 | 1.02 | 1.02 | 99 | 1010.8 |
| 20260503001937 | 56 | 41 | 0.9 | 2.6 | 0.00 | 1.02 | 1.02 | 99 | 1010.5 |
| 20260503001434 | 56 | 25 | 0.0 | 1.7 | 0.00 | 1.02 | 1.02 | 99 | 1010.7 |
| 20260503000932 | 56 | 45 | 0.9 | 0.9 | 0.00 | 1.02 | 1.02 | 99 | 1010.9 |
| 20260503000430 | 56 | 21 | 0.9 | 2.6 | 0.00 | 1.02 | 1.02 | 99 | 1010.9 |
| 20260502235926 | 56 | 247 | 0.0 | 0.9 | 0.00 | 1.02 | 1.02 | 99 | 1010.7 |
| 20260502235423 | 56 | 238 | 0.0 | 2.6 | 0.00 | 1.02 | 1.02 | 99 | 1010.5 |
| 20260502234920 | 56 | 323 | 0.9 | 1.7 | 0.00 | 1.02 | 1.02 | 99 | 1010.3 |
| 20260502234417 | 56 | 15 | 0.0 | 1.7 | 0.00 | 1.02 | 1.02 | 99 | 1010.3 |
| 20260502233914 | 56 | 42 | 2.6 | 2.6 | 0.00 | 1.02 | 1.02 | 99 | 1010.4 |
| 20260502233409 | 56 | 286 | 0.9 | 0.9 | 0.00 | 1.02 | 1.02 | 99 | 1010.5 |
| 20260502232907 | 56 | 259 | 0.9 | 1.7 | 0.00 | 1.02 | 1.02 | 99 | 1010.3 |
| 20260502232403 | 57 | 42 | 1.7 | 2.6 | 0.00 | 1.02 | 1.02 | 99 | 1010.0 |
| 20260502231900 | 57 | 14 | 0.9 | 1.7 | 0.00 | 1.02 | 1.02 | 99 | 1009.8 |
| 20260502231358 | 57 | 321 | 0.0 | 0.9 | 0.00 | 1.02 | 1.02 | 99 | 1009.5 |
| 20260502230855 | 57 | 301 | 0.9 | 1.7 | 0.00 | 1.02 | 1.02 | 99 | 1009.6 |
| 20260502230353 | 57 | 41 | 0.9 | 2.6 | 0.00 | 1.02 | 1.02 | 99 | 1009.8 |
| 20260502225850 | 57 | 54 | 0.0 | 4.3 | 0.00 | 1.02 | 1.02 | 99 | 1009.8 |
| 20260502225346 | 57 | 269 | 0.0 | 4.3 | 0.00 | 1.02 | 1.02 | 99 | 1009.8 |
| 20260502224844 | 57 | 260 | 0.0 | 0.9 | 0.00 | 1.02 | 1.02 | 99 | 1009.8 |
| 20260502224339 | 57 | 269 | 0.0 | 1.7 | 0.02 | 1.02 | 1.02 | 99 | 1009.8 |
| 20260502223837 | 57 | 76 | 2.6 | 4.3 | 0.02 | 1.02 | 1.02 | 99 | 1009.9 |
| 20260502223335 | 57 | 38 | 0.9 | 1.7 | 0.00 | 1.02 | 1.02 | 99 | 1010.1 |
| 20260502222832 | 57 | 284 | 0.9 | 1.7 | 0.00 | 1.02 | 1.02 | 99 | 1009.8 |
| 20260502222330 | 57 | 315 | 0.0 | 1.7 | 0.00 | 1.02 | 1.02 | 99 | 1009.8 |
| 20260502221825 | 57 | 331 | 0.9 | 1.7 | 0.00 | 1.02 | 1.02 | 99 | 1009.9 |
| 20260502221322 | 57 | 16 | 0.0 | 1.7 | 0.02 | 1.02 | 1.02 | 99 | 1009.7 |
| 20260502220819 | 57 | 275 | 0.9 | 1.7 | 0.02 | 1.02 | 1.02 | 99 | 1009.7 |
| 20260502220315 | 57 | 44 | 0.9 | 4.3 | 0.00 | 1.01 | 1.01 | 99 | 1009.5 |
| 20260502215811 | 57 | 23 | 0.9 | 4.3 | 0.00 | 1.01 | 1.01 | 99 | 1009.5 |